Location: Unspecified
(0.0000°N, 0.0000°E)
Time: 16:19:22
(UTC+00:00)

FASTSAT-HSV01 (USA 220) - Visible Passes

Search period start: 20 April 2024 00:00
Search period end: 30 April 2024 00:00
Orbit: 628 x 652 km, 72.0° (Epoch: 22 April)

Date Brightness Start Highest point End Pass type
(mag) Time Alt. Az. Time Alt. Az. Time Alt. Az.
20 Apr 10.0 18:16:22 10° SW 18:20:20 30° WNW 18:24:18 10° NNW visible
21 Apr 10.6 04:48:50 10° NNE 04:52:02 19° ENE 04:55:14 10° ESE visible
21 Apr 11.6 18:41:28 10° W 18:42:00 10° WNW 18:42:33 10° WNW visible
22 Apr 8.4 05:09:16 10° N 05:13:41 57° ENE 05:18:06 10° SSE visible
23 Apr 7.9 05:31:02 10° NNW 05:35:19 45° WSW 05:39:38 10° S visible
24 Apr 10.1 04:14:27 10° NNE 04:17:53 22° ENE 04:21:19 10° SE visible
25 Apr 8.0 04:35:05 10° N 04:39:32 65° ENE 04:43:59 10° SSE visible
26 Apr 8.0 04:56:58 10° NW 05:01:10 40° WSW 05:05:24 10° S visible
27 Apr 9.8 03:40:05 10° NNE 03:43:44 24° ENE 03:47:22 10° SE visible
27 Apr 9.2 05:20:32 10° WNW 05:22:50 14° WSW 05:25:09 10° SW visible
28 Apr 9.7 04:08:50 17° SSE 04:08:50 17° SSE 04:09:52 10° SSE visible
